Weather History for KSPW - January, 2013

Change the Weather History Date:

Thursday, January 3, 2013

  Actual Average (KEST) Record (KEST)
Temperature  
Mean Temperature 14 °F 16 °F  
Max Temperature 26 °F 24 °F 45 °F (1962)
Min Temperature 3 °F 7 °F -18 °F (1968)
Degree Days  
Heating Degree Days 50 49  
Month to date heating degree days 147  
Since 1 July heating degree days 3290  
Cooling Degree Days 0 0  
Month to date cooling degree days 0  
Year to date cooling degree days 0  
Moisture  
Dew Point 9 °F    
Average Humidity 78    
Maximum Humidity 86    
Minimum Humidity 70    
Precipitation  
Precipitation 0.00 in 0.01 in 0.47 in (1975)
Month to date precipitation 0.02  
Sea Level Pressure  
Sea Level Pressure 30.30 in    
Wind  
Wind Speed 13 mph (WNW)    
Max Wind Speed 20 mph    
Max Gust Speed -    
Visibility 10 miles    
Events Snow    
T = Trace of Precipitation, MM = Missing Value Source: NWS Daily Summary

Daily Weather History Graph

Daily Weather History Graph

Search for Another Location

Airport or City:

Trip Planner

Search our weather history database for the weather conditions in past years. The results will help you decide how hot, cold, wet, or windy it might be!

Date:

Astronomy

Jan. 03, 2013 Rise Set
Actual Time 7:52 AM CST 4:58 PM CST
Civil Twilight 7:20 AM CST 5:30 PM CST
Nautical Twilight 6:44 AM CST 6:06 PM CST
Astronomical Twilight 6:10 AM CST 6:40 PM CST
Moon 11:46 PM CST (1/3) 10:54 AM CST (1/3)
Length of Visible Light 10h 10m
Length of Day
9h 05m
Waning Gibbous, 65% of the Moon is Illuminated
Jan 3
Waning Gibbous
Jan 4
Last Quarter
Jan 11
New
Jan 18
First Quarter
Jan 26
Full

Hourly Weather History & Observations

Time (CST) Temp. Windchill Dew Point Humidity Pressure Visibility Wind Dir Wind Speed Gust Speed Precip Events Conditions
12:00 AM 26.6 °F 15.7 °F 21.2 °F 80% 30.14 in 10.0 mi North 12.7 mph - N/A   Overcast
12:46 AM 24.8 °F 12.9 °F 21.2 °F 86% 30.15 in 7.0 mi NNW 13.8 mph - 0.00 in   Overcast
1:17 AM 24.8 °F 12.4 °F 19.4 °F 80% 30.15 in 9.0 mi North 15.0 mph - N/A   Overcast
1:45 AM 21.2 °F 7.8 °F 17.6 °F 86% 30.16 in 10.0 mi North 15.0 mph - N/A   Overcast
1:53 AM 21.0 °F 6.2 °F 16.0 °F 81% 30.23 in 10.0 mi NNW 18.4 mph - N/A   Overcast
2:53 AM 19.0 °F 3.2 °F 12.9 °F 77% 30.25 in 10.0 mi NNW 19.6 mph - N/A   Overcast
3:07 AM 15.8 °F -1.1 °F 10.4 °F 79% 30.19 in 10.0 mi NNW 19.6 mph - N/A   Overcast
3:29 AM 14.0 °F 0.5 °F 8.6 °F 79% 30.20 in 10.0 mi NNW 11.5 mph - N/A   Scattered Clouds
3:53 AM 12.0 °F -2.7 °F 7.0 °F 80% 30.27 in 10.0 mi NNW 12.7 mph - N/A   Clear
4:53 AM 10.0 °F -7.1 °F 3.9 °F 76% 30.29 in 10.0 mi NW 16.1 mph - N/A   Clear
5:53 AM 8.1 °F -6.2 °F 1.9 °F 76% 30.32 in 10.0 mi NW 10.4 mph - N/A   Clear
6:53 AM 6.1 °F -8.7 °F -0.0 °F 76% 30.35 in 10.0 mi WNW 10.4 mph - N/A   Clear
7:53 AM 3.9 °F -9.4 °F -2.0 °F 76% 30.36 in 10.0 mi WNW 8.1 mph - N/A   Clear
8:53 AM 5.0 °F -10.0 °F -0.9 °F 76% 30.38 in 10.0 mi WNW 10.4 mph - N/A   Clear
9:53 AM 8.1 °F -7.7 °F 1.0 °F 73% 30.40 in 10.0 mi WNW 12.7 mph - N/A   Clear
10:53 AM 10.0 °F -5.2 °F 3.0 °F 73% 30.41 in 10.0 mi WNW 12.7 mph - N/A   Clear
11:53 AM 12.0 °F -3.4 °F 5.0 °F 73% 30.39 in 10.0 mi WNW 13.8 mph - N/A   Clear
12:53 PM 15.1 °F -0.6 °F 7.0 °F 70% 30.37 in 10.0 mi NW 16.1 mph - N/A   Mostly Cloudy
1:18 PM 15.8 °F 0.9 °F 8.6 °F 73% 30.29 in 10.0 mi WNW 15.0 mph - N/A   Mostly Cloudy
1:53 PM 16.0 °F 0.1 °F 9.0 °F 74% 30.35 in 8.0 mi WNW 17.3 mph - 0.00 in Snow Light Snow
2:53 PM 16.0 °F 2.9 °F 10.0 °F 77% 30.36 in 9.0 mi WNW 11.5 mph - 0.00 in   Overcast
3:53 PM 17.1 °F 7.6 °F 10.9 °F 77% 30.36 in 10.0 mi West 6.9 mph - N/A   Overcast
4:18 PM 15.8 °F 4.2 °F 10.4 °F 79% 30.29 in 10.0 mi WSW 9.2 mph - N/A   Scattered Clouds
4:50 PM 15.8 °F 4.2 °F 10.4 °F 79% 30.29 in 10.0 mi WSW 9.2 mph - N/A   Mostly Cloudy
4:53 PM 15.1 °F 3.3 °F 10.0 °F 80% 30.38 in 10.0 mi WSW 9.2 mph - N/A   Mostly Cloudy
5:53 PM 17.1 °F 5.8 °F 12.0 °F 81% 30.36 in 10.0 mi SW 9.2 mph - N/A   Overcast
6:11 PM 15.8 °F 3.4 °F 10.4 °F 79% 30.27 in 10.0 mi SW 10.4 mph - N/A   Scattered Clouds
6:53 PM 15.1 °F 3.3 °F 10.0 °F 80% 30.35 in 10.0 mi SW 9.2 mph - N/A   Clear
7:53 PM 16.0 °F 1.7 °F 10.9 °F 81% 30.34 in 10.0 mi SW 13.8 mph - N/A   Clear
8:53 PM 15.1 °F -0.1 °F 10.9 °F 84% 30.32 in 10.0 mi SW 15.0 mph - N/A   Clear
9:53 PM 16.0 °F 1.7 °F 10.9 °F 81% 30.29 in 10.0 mi SW 13.8 mph - N/A   Clear
10:53 PM 16.0 °F 2.9 °F 10.9 °F 81% 30.27 in 10.0 mi WSW 11.5 mph - N/A   Clear
11:53 PM 17.1 °F 2.0 °F 10.9 °F 77% 30.25 in 10.0 mi WSW 16.1 mph - N/A   Clear